{"data":{"norad_id":40482,"intl_designator":"2015-011A","name":"MMS 1","alt_names":[],"object_type":"PAYLOAD","status":"ACTIVE","operator":null,"country":"US","launch_date":"2015-03-13","launch_site_code":"AFETR","launch_vehicle":null,"mission":null,"orbit_class":"UNKNOWN","rcs_meters":3.2865,"size_class":null,"mass_kg":null,"dimensions":null,"purposes":["science"],"wikipedia_slug":null,"has_3d_model":false,"image_url":null,"decayed_at":null,"tle_current":{"epoch":"2026-09-20T06:00:02.000160Z","epoch_age_seconds":35853,"freshness":"FRESH","line1":"1 40482U 15011A   26263.25002315 -.00001959  00000+0  00000+0 0  9996","line2":"2 40482  72.8933 347.7201 8250750 169.3950 276.1602  0.28314066  1393","mean_motion":0.28314066,"eccentricity":0.825075,"inclination_deg":72.8933,"raan_deg":347.7201,"arg_perigee_deg":169.395,"mean_anomaly_deg":276.1602,"bstar":0,"rev_number":139,"period_min":5085.8114126032,"perigee_km":10758.235625368,"apogee_km":172413.71819076,"semimajor_km":97964.113908064,"source":"CELESTRAK","updated_at":"2026-09-20T09:00:47.148602Z"}}}